Location: Sobotiste
(48.7170°N, 17.4000°E)
Time: 18:35:01
(UTC+01:00)

UWE-3 - Visible Passes

Search period start: 14 March 2026 00:00
Search period end: 24 March 2026 00:00
Orbit: 545 x 612 km, 97.9° (Epoch: 14 March)

Date Brightness Start Highest point End Pass type
(mag) Time Alt. Az. Time Alt. Az. Time Alt. Az.
14 Mar ? 01:46:27 10° NE 01:46:56 12° NE 01:46:56 12° NE visible
14 Mar ? 03:21:08 10° N 03:23:14 26° NNW 03:23:14 26° NNW visible
15 Mar ? 01:50:48 10° NE 01:51:35 14° NE 01:51:35 14° NE visible
15 Mar ? 03:25:39 10° N 03:27:54 27° NNW 03:27:54 27° NNW visible
16 Mar ? 01:55:10 10° NE 01:56:13 15° NE 01:56:13 15° NE visible
16 Mar ? 03:30:10 10° N 03:32:31 27° NNW 03:32:31 27° NNW visible
17 Mar ? 01:59:32 10° NE 02:00:51 17° NE 02:00:51 17° NE visible
17 Mar ? 03:34:40 10° N 03:37:09 27° NNW 03:37:09 27° NNW visible
18 Mar ? 02:03:54 10° NNE 02:05:27 19° NE 02:05:27 19° NE visible
18 Mar ? 03:39:11 10° N 03:41:46 26° NW 03:41:46 26° NW visible
19 Mar ? 02:08:15 10° NNE 02:10:03 21° NE 02:10:03 21° NE visible
19 Mar ? 03:43:41 10° N 03:46:22 25° NW 03:46:22 25° NW visible
20 Mar ? 02:12:37 10° NNE 02:14:38 24° NE 02:14:38 24° NE visible
20 Mar ? 03:48:11 10° N 03:50:57 24° NW 03:50:57 24° NW visible
21 Mar ? 02:16:58 10° NNE 02:19:13 27° NE 02:19:13 27° NE visible
21 Mar ? 03:52:40 10° N 03:55:31 23° NW 03:55:31 23° NW visible
22 Mar ? 02:21:19 10° NNE 02:23:46 30° NE 02:23:46 30° NE visible
22 Mar ? 03:57:10 10° NNW 04:00:04 21° NW 04:00:04 21° NW visible
23 Mar ? 02:25:40 10° NNE 02:28:18 33° NE 02:28:18 33° NE visible
23 Mar ? 04:01:40 10° NNW 04:04:37 20° WNW 04:04:37 20° WNW visible
